When you browse on this site, cookies collect data to enhance your experience and personalize the content and advertising you see.
Visit our Privacy Policy to learn more. By continuing to use the site, you agree to this use of cookies and data.
  • en France
  • Liste des pays
  • À 7 jours
  • Température de l'eau
  • Carte météo
  • Widgets météo
  • user-avatar
    Se connecter

    Météo par heure à Makadi Bey

    Ce jour, 26 Mai, Mardi

    Heure Température Précipitation Vent Pression Humidité
    00:00 +20°C° 0 mm 2 m/s 705 mmHg 23%
    01:00 +20°C° 0 mm 2 m/s 705 mmHg 22%
    02:00 +20°C° 0 mm 2 m/s 704 mmHg 22%
    03:00 +20°C° 0 mm 1 m/s 704 mmHg 22%
    04:00 +20°C° 0 mm 1 m/s 704 mmHg 22%
    05:00 +19°C° 0 mm 1 m/s 704 mmHg 22%
    06:00 +22°C° 0 mm 1 m/s 705 mmHg 19%
    07:00 +25°C° 0 mm 2 m/s 706 mmHg 16%
    08:00 +29°C° 0 mm 2 m/s 706 mmHg 12%
    09:00 +30°C° 0 mm 2 m/s 707 mmHg 11%
    10:00 +32°C° 0 mm 2 m/s 707 mmHg 10%
    11:00 +34°C° 0 mm 2 m/s 707 mmHg 9%
    12:00 +35°C° 0 mm 3 m/s 707 mmHg 8%
    13:00 +36°C° 0 mm 3 m/s 706 mmHg 8%
    14:00 +37°C° 0 mm 4 m/s 706 mmHg 8%
    15:00 +36°C° 0 mm 3 m/s 706 mmHg 8%
    16:00 +36°C° 0 mm 3 m/s 705 mmHg 9%
    17:00 +35°C° 0 mm 3 m/s 705 mmHg 10%
    18:00 +32°C° 0 mm 2 m/s 705 mmHg 14%
    19:00 +29°C° 0 mm 2 m/s 705 mmHg 18%
    20:00 +26°C° 0 mm 2 m/s 704 mmHg 23%
    21:00 +25°C° 0 mm 1 m/s 704 mmHg 23%
    22:00 +24°C° 0 mm 1 m/s 704 mmHg 22%
    23:00 +23°C° 0 mm 1 m/s 704 mmHg 22%

    Demain, 27 Mai, Mercredi

    Heure Température Précipitation Vent Pression Humidité
    00:00 +23°C° 0 mm 1 m/s 704 mmHg 21%
    01:00 +22°C° 0 mm 1 m/s 704 mmHg 21%
    02:00 +22°C° 0 mm 1 m/s 703 mmHg 20%
    03:00 +21°C° 0 mm 1 m/s 703 mmHg 20%
    04:00 +19°C° 0 mm 0 m/s 704 mmHg 19%
    05:00 +19°C° 0 mm 0 m/s 704 mmHg 19%
    06:00 +22°C° 0 mm 0 m/s 705 mmHg 16%
    07:00 +27°C° 0 mm 1 m/s 706 mmHg 13%
    08:00 +31°C° 0 mm 1 m/s 706 mmHg 11%
    09:00 +32°C° 0 mm 1 m/s 707 mmHg 9%
    10:00 +35°C° 0 mm 2 m/s 707 mmHg 8%
    11:00 +37°C° 0 mm 3 m/s 707 mmHg 6%
    12:00 +37°C° 0 mm 3 m/s 707 mmHg 7%
    13:00 +37°C° 0 mm 4 m/s 707 mmHg 7%
    14:00 +38°C° 0 mm 4 m/s 706 mmHg 8%
    15:00 +37°C° 0 mm 4 m/s 706 mmHg 8%
    16:00 +37°C° 0 mm 4 m/s 706 mmHg 9%
    17:00 +36°C° 0 mm 3 m/s 705 mmHg 9%
    18:00 +34°C° 0 mm 3 m/s 705 mmHg 13%
    19:00 +30°C° 0 mm 2 m/s 705 mmHg 17%
    20:00 +27°C° 0 mm 2 m/s 705 mmHg 21%
    21:00 +26°C° 0 mm 1 m/s 705 mmHg 23%
    22:00 +25°C° 0 mm 1 m/s 705 mmHg 24%
    23:00 +24°C° 0 mm 1 m/s 705 mmHg 25%

    Après-demain, 28 Mai, Jeudi

    Heure Température Précipitation Vent Pression Humidité
    00:00 +24°C° 0 mm 1 m/s 705 mmHg 26%
    01:00 +24°C° 0 mm 1 m/s 705 mmHg 26%
    02:00 +23°C° 0 mm 1 m/s 705 mmHg 26%
    03:00 +23°C° 0 mm 1 m/s 705 mmHg 27%
    04:00 +22°C° 0 mm 1 m/s 705 mmHg 29%
    05:00 +21°C° 0 mm 1 m/s 705 mmHg 31%
    06:00 +24°C° 0 mm 1 m/s 706 mmHg 27%
    07:00 +27°C° 0 mm 1 m/s 706 mmHg 23%
    08:00 +29°C° 0 mm 1 m/s 707 mmHg 19%
    09:00 +31°C° 0 mm 2 m/s 707 mmHg 16%
    10:00 +34°C° 0 mm 3 m/s 707 mmHg 14%
    11:00 +36°C° 0 mm 3 m/s 708 mmHg 12%
    12:00 +36°C° 0 mm 4 m/s 707 mmHg 11%
    13:00 +37°C° 0 mm 5 m/s 707 mmHg 11%
    14:00 +38°C° 0 mm 6 m/s 706 mmHg 10%
    15:00 +38°C° 0 mm 6 m/s 706 mmHg 10%
    16:00 +36°C° 0 mm 6 m/s 706 mmHg 9%
    17:00 +35°C° 0 mm 7 m/s 706 mmHg 9%
    18:00 +33°C° 0 mm 5 m/s 706 mmHg 11%
    19:00 +29°C° 0 mm 4 m/s 706 mmHg 13%
    20:00 +27°C° 0 mm 2 m/s 706 mmHg 15%
    21:00 +26°C° 0 mm 2 m/s 706 mmHg 16%
    22:00 +25°C° 0 mm 3 m/s 706 mmHg 17%
    23:00 +24°C° 0 mm 3 m/s 706 mmHg 18%

    29 Mai, Vendredi

    Heure Température Précipitation Vent Pression Humidité
    00:00 +23°C° 0 mm 2 m/s 706 mmHg 20%
    01:00 +23°C° 0 mm 2 m/s 705 mmHg 21%
    02:00 +21°C° 0 mm 2 m/s 705 mmHg 22%
    03:00 +21°C° 0 mm 2 m/s 705 mmHg 23%
    04:00 +21°C° 0 mm 2 m/s 706 mmHg 24%
    05:00 +21°C° 0 mm 2 m/s 706 mmHg 25%
    06:00 +24°C° 0 mm 3 m/s 706 mmHg 23%
    07:00 +27°C° 0 mm 4 m/s 707 mmHg 20%
    08:00 +29°C° 0 mm 4 m/s 708 mmHg 17%
    09:00 +32°C° 0 mm 5 m/s 708 mmHg 16%
    10:00 +33°C° 0 mm 5 m/s 708 mmHg 14%
    11:00 +35°C° 0 mm 6 m/s 708 mmHg 12%
    12:00 +35°C° 0 mm 7 m/s 708 mmHg 12%
    13:00 +37°C° 0 mm 8 m/s 708 mmHg 11%
    14:00 +37°C° 0 mm 9 m/s 707 mmHg 11%
    15:00 +37°C° 0 mm 9 m/s 707 mmHg 11%
    16:00 +35°C° 0 mm 9 m/s 707 mmHg 11%
    17:00 +34°C° 0 mm 8 m/s 706 mmHg 12%
    18:00 +30°C° 0 mm 7 m/s 706 mmHg 14%
    19:00 +28°C° 0 mm 6 m/s 706 mmHg 17%
    20:00 +25°C° 0 mm 4 m/s 706 mmHg 20%
    21:00 +23°C° 0 mm 4 m/s 706 mmHg 22%
    22:00 +22°C° 0 mm 3 m/s 706 mmHg 25%
    23:00 +21°C° 0 mm 2 m/s 706 mmHg 28%

    30 Mai, Samedi

    Heure Température Précipitation Vent Pression Humidité
    00:00 +20°C° 0 mm 2 m/s 706 mmHg 29%
    01:00 +20°C° 0 mm 2 m/s 705 mmHg 30%
    02:00 +19°C° 0 mm 2 m/s 705 mmHg 30%
    03:00 +19°C° 0 mm 1 m/s 705 mmHg 31%
    04:00 +19°C° 0 mm 1 m/s 705 mmHg 31%
    05:00 +19°C° 0 mm 1 m/s 705 mmHg 32%
    06:00 +21°C° 0 mm 1 m/s 706 mmHg 26%
    07:00 +24°C° 0 mm 2 m/s 706 mmHg 19%
    08:00 +26°C° 0 mm 2 m/s 707 mmHg 13%
    09:00 +28°C° 0 mm 2 m/s 707 mmHg 10%
    10:00 +30°C° 0 mm 2 m/s 707 mmHg 7%
    11:00 +33°C° 0 mm 3 m/s 707 mmHg 5%
    12:00 +34°C° 0 mm 4 m/s 707 mmHg 4%
    13:00 +35°C° 0 mm 5 m/s 707 mmHg 4%
    14:00 +36°C° 0 mm 6 m/s 707 mmHg 4%
    15:00 +35°C° 0 mm 6 m/s 706 mmHg 6%
    16:00 +34°C° 0 mm 6 m/s 706 mmHg 7%
    17:00 +33°C° 0 mm 6 m/s 706 mmHg 8%
    18:00 +30°C° 0 mm 4 m/s 706 mmHg 12%
    19:00 +27°C° 0 mm 3 m/s 706 mmHg 15%
    20:00 +25°C° 0 mm 2 m/s 705 mmHg 18%
    21:00 +24°C° 0 mm 2 m/s 705 mmHg 17%
    22:00 +23°C° 0 mm 2 m/s 705 mmHg 17%
    23:00 +23°C° 0 mm 2 m/s 705 mmHg 16%

    31 Mai, Dimanche

    Heure Température Précipitation Vent Pression Humidité
    00:00 +21°C° 0 mm 2 m/s 705 mmHg 15%
    01:00 +22°C° 0 mm 1 m/s 705 mmHg 15%
    02:00 +21°C° 0 mm 1 m/s 705 mmHg 15%
    03:00 +21°C° 0 mm 1 m/s 705 mmHg 17%
    04:00 +20°C° 0 mm 1 m/s 705 mmHg 18%
    05:00 +19°C° 0 mm 1 m/s 705 mmHg 20%
    06:00 +21°C° 0 mm 2 m/s 705 mmHg 17%
    07:00 +25°C° 0 mm 2 m/s 706 mmHg 14%
    08:00 +28°C° 0 mm 2 m/s 707 mmHg 10%
    09:00 +30°C° 0 mm 2 m/s 707 mmHg 9%
    10:00 +34°C° 0 mm 2 m/s 707 mmHg 7%
    11:00 +36°C° 0 mm 2 m/s 707 mmHg 5%
    12:00 +37°C° 0 mm 4 m/s 707 mmHg 5%
    13:00 +39°C° 0 mm 6 m/s 707 mmHg 5%
    14:00 +40°C° 0 mm 7 m/s 706 mmHg 5%
    15:00 +39°C° 0 mm 7 m/s 706 mmHg 6%
    16:00 +38°C° 0 mm 7 m/s 706 mmHg 7%
    17:00 +36°C° 0 mm 7 m/s 706 mmHg 9%
    18:00 +33°C° 0 mm 6 m/s 705 mmHg 10%
    19:00 +29°C° 0 mm 4 m/s 705 mmHg 12%
    20:00 +26°C° 0 mm 2 m/s 705 mmHg 13%
    21:00 +25°C° 0 mm 2 m/s 705 mmHg 14%
    22:00 +25°C° 0 mm 2 m/s 705 mmHg 15%
    23:00 +24°C° 0 mm 2 m/s 705 mmHg 15%
    Voir plus